Location: Tierra del Sol
(32.6128°N, 116.3319°W)
Time: 12:55:52
(UTC-07:00)

Daily predictions for brighter satellites

Satellite Brightness Start Highest point End
(mag) Time Altitude Azimuth Time Altitude Azimuth Time Altitude Azimuth
FengYun 1-2 T 4.4 20:05:55 10° SSE 20:11:32 89° W 20:17:13 10° NNW
NOSS 2-2 (C) 3.6 20:14:21 10° SSW 20:18:22 83° WNW 20:22:48 10° NNE
H-2A R/B 4.0 20:16:27 10° E 20:18:35 14° ENE 20:20:41 10° NE
USA 186 2.0 20:16:34 10° SSE 20:19:29 48° ENE 20:22:35 10° N
CZ-4B DEB 3.8 20:20:04 10° S 20:23:14 48° W 20:26:25 10° NNW
Cosmos 2181 Rocket 4.1 20:17:20 10° N 20:23:48 89° E 20:30:09 10° S
ERBS 3.7 20:23:16 10° NNW 20:26:18 28° NE 20:29:06 11° ESE
Envisat 4.4 20:23:23 10° ESE 20:27:10 22° ENE 20:30:57 10° NNE
ATLAS 5 CENTAUR R/B 3.0 20:22:54 10° NNW 20:28:45 46° NE 20:34:33 12° SE
Cosmos 1624 Rocket 4.0 20:23:45 10° SSW 20:28:59 82° ESE 20:34:18 10° NNE
SEDSat Delta rocket 4.4 20:26:18 10° SSW 20:29:17 18° SSE 20:31:35 12° ESE
GPS 2-05 Rocket1 2.9 20:25:39 10° WSW 20:29:20 66° SSE 20:32:58 10° ENE
Okean 1-7 3.5 20:28:13 10° NNW 20:32:29 64° W 20:36:45 10° S
CZ-4 DEB 3.3 20:30:01 10° SE 20:33:00 39° ENE 20:35:59 10° N
Abrixas rocket 2.5 20:32:15 10° NW 20:35:38 66° SW 20:38:25 14° SE
OAO 3 Rocket 4.2 20:32:06 10° SSW 20:36:14 26° SSE 20:40:00 11° E
COSMOS 2406 3.6 20:30:52 10° N 20:36:24 48° ENE 20:41:21 13° SE
Cosmos 2074 Rocket 4.0 20:30:20 10° S 20:36:36 74° E 20:42:51 10° N
Cosmos 1825 3.8 20:39:30 15° ESE 20:40:41 17° E 20:43:11 10° NE
Cosmos 1408 4.2 20:41:19 15° ESE 20:42:12 17° E 20:44:34 10° NE
Resurs 01 Rocket 4.2 20:39:55 10° SW 20:43:06 20° W 20:46:19 10° NW
Cosmos 2278 Rocket 2.9 20:38:24 10° SSE 20:43:20 32° ESE 20:48:17 10° NE
ERS-1 Rocket 3.2 20:42:30 11° SSE 20:47:07 52° ENE 20:52:00 10° N
Cosmos 1844 3.8 20:41:55 10° S 20:47:31 57° ESE 20:53:11 10° NNE
Cosmos 1844 Rocket 2.6 20:43:04 10° SSW 20:48:43 82° ESE 20:54:23 10° NNE
Cosmos 407 Rocket 4.3 20:43:57 10° N 20:48:45 34° ENE 20:52:01 18° ESE
Cosmos 1674 Rocket 4.0 20:45:44 10° N 20:49:59 44° E 20:53:05 17° SSE
Sich 1 Rocket 3.8 20:47:23 10° SSE 20:51:49 52° E 20:56:16 10° NNE
Cosmos 1452 Rocket 3.7 20:48:03 10° S 20:53:04 49° ESE 20:58:09 10° NNE
Meteosat 1 Rocket2 4.2 20:51:22 10° WSW 20:56:54 62° S 21:04:00 15° E
Cosmos 1862 4.0 20:54:56 19° SE 20:57:11 34° E 21:00:54 10° NNE
Centaur AC-119 2.6 20:55:16 10° WSW 20:57:11 20° S 20:57:11 20° S
Meteor 1-10 Rocket 4.2 20:54:40 10° N 21:00:28 74° E 21:05:32 13° SSE
Cosmos 1190 Rocket 4.1 20:57:25 10° N 21:02:33 59° ENE 21:05:50 22° SE
Coronas F rocket 3.8 21:01:36 10° SW 21:03:47 23° W 21:05:59 10° NNW
BREEZE-M DEB (TANK) 2.5 21:03:49 10° NW 21:05:56 56° NE 21:07:23 29° ESE
EO 1 Delta rocket 4.1 21:02:14 10° NNE 21:08:03 61° E 21:12:16 14° S
Meteor 2-10 Rocket 4.1 21:04:44 10° NNW 21:10:27 64° W 21:15:59 10° S
CZ-4B R/B 4.3 21:07:34 10° NE 21:11:38 26° E 21:12:03 25° ESE
Cosmos 1184 Rocket 3.7 21:12:21 31° E 21:12:21 31° E 21:15:06 10° NNE
USA 234 3.9 21:09:06 10° ENE 21:14:37 29° SE 21:20:08 10° S
Cosmos 2341 Rocket 4.1 21:09:51 14° SSE 21:15:10 55° E 21:21:16 10° NNE
Cosmos 2297 4.5 21:16:03 28° SE 21:17:18 30° ESE 21:22:14 10° NE
Cosmos 1975 Rocket 4.1 21:15:59 10° NNE 21:19:42 27° ENE 21:20:00 27° E
PSLV R/B 4.5 21:22:40 26° NE 21:22:40 26° NE 21:24:36 10° NNE
Cosmos 1908 Rocket 3.6 21:20:47 14° S 21:24:36 82° W 21:29:03 10° N
Cosmos 1606 2.7 21:20:52 10° N 21:24:47 68° E 21:25:47 46° SSE
Cosmos 1782 3.4 21:24:25 10° NNW 21:28:23 57° W 21:30:42 23° SSW
Meteor 1-27 Rocket 3.6 21:23:29 10° N 21:29:02 76° E 21:31:46 31° SSE
H-2A R/B 2.8 21:29:02 10° W 21:29:11 11° W 21:29:11 11° W
deb Chang Zheng 4 4.4 21:27:59 10° N 21:32:17 53° WNW 21:36:36 10° SSW
Cosmos 1939 Rocket 3.2 21:30:37 29° SSW 21:32:22 58° W 21:36:13 10° NNW
SL-8 Rocket 4.4 21:30:26 33° SE 21:32:30 43° E 21:38:20 10° NNE
Cosmos 2084 4.2 21:28:48 10° SW 21:32:34 48° WNW 21:36:17 10° NNE
Cosmos 962 Rocket 4.4 21:27:57 17° S 21:32:51 77° E 21:39:04 10° N
Cosmos 1378 Rocket 3.4 21:28:41 10° N 21:32:59 67° E 21:33:55 50° SE
Cosmos 676 Rocket 4.0 21:27:48 10° N 21:32:59 68° ENE 21:34:45 41° SE
Centaur D-1A AC-32 3.1 21:30:38 10° WSW 21:34:24 28° SSW 21:34:24 28° SSW
Cosmos 1174 4.1 21:33:25 10° NNW 21:35:46 37° NNE 21:35:46 37° NNE
USA 245 4.5 21:38:18 25° NE 21:38:18 25° NE 21:40:33 10° N
ISS -1.4 21:35:03 10° WSW 21:37:59 31° NW 21:40:56 10° NNE
Cosmos 1954 Rocket 4.1 21:33:15 10° N 21:38:23 57° ENE 21:39:39 45° ESE
COS B Rocket 3.3 21:35:07 10° N 21:39:06 73° W 21:39:59 49° SSW
CENTAUR R/B 3.8 21:32:34 10° NW 21:40:14 48° WSW 21:46:17 18° S
SL-27 R/B 3.9 21:38:46 10° NW 21:42:05 34° W 21:43:10 27° SW
Cosmos 2154 Rocket 4.3 21:36:57 10° SSW 21:43:06 66° W 21:49:17 10° N
Atlas Centaur 2 1.9 21:43:42 10° W 21:46:17 39° SW 21:46:17 39° SW
Terra 3.7 21:47:55 16° ENE 21:47:55 16° ENE 21:50:24 10° NNE
SPOT 5 3.1 21:45:33 39° S 21:47:33 83° WSW 21:52:55 10° NNW
Cosmos 1238 Rocket 2.5 21:44:58 10° N 21:48:12 82° NNW 21:48:12 82° NNW
MetOp-B 4.0 21:48:36 47° SSE 21:50:13 84° ENE 21:55:36 10° NNW
FALCON 9 R/B 4.4 21:10:45 10° WNW 21:51:06 58° SW 21:57:15 31° SSE
CZ-3A R/B 3.8 21:41:37 10° W 21:52:35 30° SSW 21:53:31 28° SSW
Cosmos 1295 Rocket 4.4 21:51:01 32° S 21:54:10 83° E 22:00:28 10° N
H-2A R/B 3.1 21:52:36 29° SSW 21:54:13 41° W 21:58:16 10° NNW
COSMOS 2487 3.2 21:52:22 10° N 21:55:09 49° N 21:55:09 49° N
UNK 4.5 21:49:53 10° N 21:56:04 80° WNW 22:00:11 21° SSW
deb Centaur AC-2 4.5 21:54:18 10° W 21:59:59 58° S 22:00:03 58° S
SL-08 RB Rocket 4.2 22:01:25 47° ENE 22:01:25 47° ENE 22:05:30 10° N
Centaur AC-125 4.2 21:44:46 10° WSW 22:04:27 45° S 22:05:10 43° SSE
APEX 3.6 22:05:23 65° NW 22:05:23 65° NW 22:09:44 10° NNE
Cosmos 1023 Rocket 4.4 22:00:09 10° N 22:05:15 68° ENE 22:05:25 67° E
Envisat 4.3 22:03:22 22° SSW 22:05:54 35° W 22:10:32 10° NNW
ARGOS 3.0 22:05:27 65° ESE 22:05:58 70° ENE 22:11:18 10° N
Cosmos 489 Rocket 4.3 22:01:00 10° NNW 22:07:13 79° ENE 22:08:24 60° SE
GPS 2-05 Rocket1 4.1 22:04:07 10° W 22:06:51 41° NW 22:06:51 41° NW
Cosmos 2366 rocket 3.9 22:11:33 61° SE 22:12:20 67° E 22:18:36 10° NNE
ATLAS 5 CENTAUR R/B 4.0 22:08:08 10° NW 22:13:18 27° WSW 22:16:08 20° SSW
YAOGAN 6 4.0 22:15:44 35° WNW 22:15:44 35° WNW 22:18:15 10° NNW
CZ-3C R/B 3.4 21:59:47 10° WSW 22:17:23 32° SSW 22:17:40 32° S
OAO 3 Rocket 4.0 22:14:32 10° WSW 22:17:54 43° WSW 22:17:54 43° WSW
Okean 2 Rocket 4.4 22:20:09 31° WSW 22:21:16 36° W 22:25:21 10° NNW
H-2A R/B 2.6 22:24:55 50° NE 22:24:55 50° NE 22:29:34 10° N
Cosmos 1242 Rocket 4.3 22:23:23 10° NNW 22:25:39 32° NW 22:25:39 32° NW
Cosmos 2278 Rocket 4.0 22:22:29 10° WSW 22:27:20 29° WNW 22:32:13 10° N
Cosmos 614 Rocket 4.2 22:26:02 10° NNW 22:30:21 62° N 22:30:21 62° N
Cosmos 1833 Rocket 3.5 22:27:00 10° N 22:31:40 39° NE 22:31:40 39° NE
Cosmos 2218 Rocket 4.3 22:37:01 47° SW 22:38:40 63° W 22:45:01 10° N
Cosmos 1140 Rocket 4.0 22:34:04 10° NNW 22:38:44 53° W 22:38:44 53° W
SPOT 1/Viking Rocket 4.3 22:39:37 45° WSW 22:39:45 45° W 22:44:45 10° NNW
Cosmos 2082 Rocket 2.5 22:46:02 10° NNW 22:50:49 63° N 22:50:49 63° N
USA 234 3.6 22:51:22 10° NE 22:57:47 62° NW 23:04:10 10° WSW
Cosmos 1727 Rocket 4.1 22:53:22 10° N 22:59:09 72° WNW 22:59:09 72° WNW
Terra 3.7 23:26:49 27° NW 23:26:49 27° NW 23:29:17 10° NNW
Cosmos 2369 Rocket 4.0 23:39:18 24° NNE 23:39:18 24° NNE 23:41:27 10° NNE
Lacrosse 5 4.2 23:48:56 19° NNE 23:48:56 19° NNE 23:50:25 10° NNE
USA 229 DEB 4.4 23:42:12 10° NW 23:47:41 49° WNW 23:47:41 49° WNW
USA 229 4.4 23:42:18 10° NW 23:47:47 49° WNW 23:47:47 49° WNW
